This is the latest recevied weather packets stored in our database for station/object N6GPM. If no packets are shown the sender has not sent any weather packets the latest 10 day(s).
| Time | Temp. | Humidity | Pressure | Rain* | Wind** | Luminosity | Snow |
|---|---|---|---|---|---|---|---|
| 1787994546 | 26.67° C | 46% | 1016.7 hPa | 0 mm | - | 0 W/m² | - |
| 1787994242 | 26.67° C | 46% | 1016.7 hPa | 0 mm | - | 0 W/m² | - |
| 1787993940 | 26.67° C | 46% | 1016.6 hPa | 0 mm | - | 0 W/m² | - |
| 1787993634 | 26.67° C | 45% | 1016.6 hPa | 0 mm | - | 0 W/m² | - |
| 1787993330 | 26.67° C | 45% | 1016.6 hPa | 0 mm | - | 0 W/m² | - |
| 1787993025 | 26.67° C | 46% | 1016.6 hPa | 0 mm | - | 0 W/m² | - |
| 1787992720 | 26.67° C | 48% | 1016.7 hPa | 0 mm | - | 0 W/m² | - |
| 1787992419 | 26.67° C | 48% | 1016.7 hPa | 0 mm | - | 0 W/m² | - |
| 1787992114 | 26.67° C | 49% | 1016.5 hPa | 0 mm | - | 0 W/m² | - |
| 1787991813 | 26.67° C | 47% | 1016.7 hPa | 0 mm | - | 0 W/m² | - |
| 1787991508 | 27.22° C | 47% | 1016.7 hPa | 0 mm | - | 0 W/m² | - |
| 1787991205 | 27.22° C | 46% | 1016.7 hPa | 0 mm | - | 0 W/m² | - |
| 1787990899 | 27.78° C | 44% | 1016.7 hPa | 0 mm | - | 0 W/m² | - |
| 1787990594 | 28.33° C | 42% | 1016.6 hPa | 0 mm | - | 0 W/m² | - |
| 1787990292 | 27.78° C | 41% | 1016.7 hPa | 0 mm | - | 0 W/m² | - |
| 1787989989 | 27.78° C | 42% | 1016.7 hPa | 0 mm | - | 0 W/m² | - |
| 1787989687 | 27.78° C | 44% | 1016.7 hPa | 0 mm | - | 0 W/m² | - |
| 1787989383 | 27.78° C | 42% | 1016.9 hPa | 0 mm | - | 0 W/m² | - |
| 1787989081 | 27.78° C | 45% | 1016.8 hPa | 0 mm | - | 0 W/m² | - |
| 1787988780 | 27.78° C | 45% | 1016.8 hPa | 0 mm | - | 0 W/m² | - |
| 1787988477 | 27.78° C | 45% | 1016.8 hPa | 0 mm | - | 0 W/m² | - |
| 1787988176 | 27.78° C | 44% | 1017 hPa | 0 mm | - | 0 W/m² | - |
| 1787987873 | 27.78° C | 42% | 1016.9 hPa | 0 mm | - | 0 W/m² | - |
| 1787987567 | 27.78° C | 43% | 1017.2 hPa | 0 mm | - | 0 W/m² | - |
| 1787987262 | 27.78° C | 43% | 1017 hPa | 0 mm | - | 0 W/m² | - |
* Rain latest hour (hover to see other rain measurements)
** Current wind speed in m/s (hover to see current wind gust speed)